QPF
0.00 0.00 0.00 0.00 0.00 0.00 0.00 0.00 0.00 0.00 0.00 0.00 0.00 0.00 0.00 0.00 0.00 0.00 0.00 0.00 0.00 0.00 0.00 0.01 0.02 0.09 0.18 0.19 0.17 0.22 0.31 0.34 0.37 0.31 0.22 0.14 0.08 0.04 0.01 0.01 0.00 0.00 0.00 0.00
0.00 0.00 0.00 0.00 0.00 0.00 0.00 0.00 0.00 0.00 0.00 0.00 0.00 0.00 0.00 0.00 0.00 0.00 0.00 0.00 0.00 0.00 0.00 0.00 0.02 0.05 0.06 0.05 0.06 0.09 0.14 0.16 0.17 0.18 0.14 0.09 0.06 0.02 0.01 0.00 0.00 0.00 0.00 0.00
0.00 0.00 0.00 0.00 0.00 0.00 0.00 0.00 0.00 0.00 0.00 0.00 0.00 0.00 0.00 0.00 0.00 0.00 0.00 0.00 0.00 0.00 0.00 0.00 0.01 0.01 0.02 0.01 0.02 0.05 0.09 0.11 0.12 0.13 0.12 0.10 0.05 0.04 0.02 0.01 0.00 0.00 0.00 0.00
0.00 0.00 0.00 0.00 0.00 0.00 0.00 0.00 0.00 0.00 0.00 0.00 0.00 0.00 0.00 0.00 0.00 0.00 0.00 0.00 0.00 0.00 0.00 0.00 0.00 0.00 0.01 0.01 0.02 0.04 0.07 0.09 0.09 0.09 0.09 0.08 0.06 0.06 0.04 0.02 0.01 0.00 0.00 0.00
0.00 0.00 0.00 0.00 0.00 0.00 0.00 0.00 0.00 0.00 0.00 0.00 0.00 0.00 0.00 0.00 0.00 0.00 0.00 0.00 0.00 0.00 0.00 0.00 0.00 0.00 0.01 0.01 0.01 0.02 0.05 0.08 0.08 0.07 0.06 0.07 0.07 0.06 0.04 0.03 0.01 0.00 0.00 0.00
0.00 0.00 0.00 0.00 0.00 0.00 0.00 0.00 0.00 0.00 0.00 0.00 0.00 0.00 0.00 0.00 0.00 0.00 0.00 0.00 0.00 0.00 0.00 0.00 0.00 0.00 0.00 0.00 0.01 0.02 0.04 0.06 0.07 0.06 0.05 0.05 0.05 0.04 0.03 0.02 0.01 0.00 0.00 0.00
0.00 0.00 0.00 0.00 0.00 0.00 0.00 0.00 0.00 0.00 0.00 0.00 0.00 0.00 0.00 0.00 0.00 0.00 0.00 0.00 0.00 0.00 0.00 0.00 0.00 0.00 0.00 0.00 0.01 0.02 0.03 0.05 0.05 0.03 0.03 0.03 0.03 0.03 0.02 0.01 0.00 0.00 0.00 0.00
0.00 0.00 0.00 0.00 0.00 0.00 0.00 0.00 0.00 0.00 0.00 0.00 0.00 0.00 0.00 0.00 0.00 0.00 0.00 0.00 0.00 0.00 0.00 0.00 0.00 0.00 0.00 0.00 0.01 0.01 0.02 0.04 0.04 0.03 0.01 0.01 0.01 0.01 0.01 0.00 0.00 0.00 0.00 0.00
0.00 0.00 0.00 0.00 0.00 0.00 0.00 0.00 0.00 0.00 0.00 0.00 0.00 0.00 0.00 0.00 0.00 0.00 0.00 0.00 0.00 0.00 0.00 0.00 0.00 0.00 0.00 0.01 0.01 0.01 0.02 0.03 0.03 0.02 0.01 0.01 0.01 0.01 0.01 0.01 0.00 0.00 0.00 0.00
0.00 0.00 0.00 0.00 0.00 0.00 0.00 0.00 0.00 0.00 0.00 0.00 0.00 0.00 0.00 0.00 0.00 0.00 0.00 0.00 0.00 0.00 0.00 0.00 0.00 0.00 0.00 0.01 0.01 0.01 0.02 0.03 0.02 0.01 0.01 0.01 0.02 0.02 0.01 0.01 0.00 0.00 0.00 0.00
0.01 0.01 0.01 0.01 0.01 0.00 0.00 0.00 0.00 0.00 0.01 0.01 0.00 0.00 0.00 0.00 0.00 0.00 0.00 0.00 0.00 0.00 0.00 0.00 0.00 0.00 0.00 0.01 0.01 0.02 0.02 0.02 0.01 0.01 0.01 0.01 0.01 0.02 0.02 0.03 0.01 0.00 0.00 0.00
0.04 0.04 0.04 0.03 0.01 0.00 0.00 0.00 0.01 0.01 0.01 0.01 0.01 0.01 0.01 0.01 0.01 0.00 0.00 0.00 0.00 0.00 0.00 0.00 0.00 0.00 0.00 0.00 0.01 0.01 0.02 0.01 0.01 0.00 0.01 0.01 0.01 0.00 0.00 0.01 0.00 0.00 0.00 0.00
0.05 0.03 0.03 0.02 0.01 0.01 0.01 0.01 0.01 0.02 0.02 0.01 0.01 0.01 0.01 0.01 0.01 0.01 0.01 0.00 0.00 0.00 0.00 0.00 0.00 0.00 0.00 0.00 0.01 0.01 0.01 0.01 0.00 0.00 0.00 0.00 0.01 0.01 0.00 0.00 0.00 0.00 0.00 0.00
0.02 0.02 0.02 0.02 0.02 0.01 0.01 0.01 0.02 0.02 0.02 0.02 0.02 0.02 0.02 0.02 0.03 0.02 0.02 0.01 0.00 0.00 0.00 0.00 0.00 0.00 0.00 0.00 0.00 0.00 0.01 0.01 0.00 0.00 0.00 0.00 0.00 0.01 0.01 0.01 0.00 0.00 0.00 0.00
0.02 0.03 0.03 0.02 0.01 0.01 0.01 0.01 0.01 0.02 0.02 0.03 0.03 0.03 0.03 0.03 0.03 0.03 0.03 0.02 0.01 0.00 0.00 0.00 0.00 0.00 0.00 0.00 0.00 0.00 0.00 0.00 0.00 0.00 0.00 0.00 0.00 0.01 0.01 0.01 0.01 0.00 0.00 0.00
0.01 0.01 0.02 0.02 0.01 0.01 0.00 0.00 0.01 0.01 0.02 0.03 0.04 0.04 0.05 0.05 0.06 0.06 0.05 0.04 0.02 0.01 0.01 0.00 0.00 0.00 0.00 0.00 0.00 0.00 0.00 0.00 0.00 0.00 0.00 0.00 0.00 0.00 0.00 0.01 0.00 0.00 0.00 0.00
0.02 0.01 0.00 0.00 0.00 0.00 0.00 0.00 0.01 0.01 0.02 0.04 0.05 0.06 0.07 0.08 0.08 0.09 0.09 0.08 0.06 0.03 0.01 0.01 0.01 0.00 0.00 0.00 0.00 0.00 0.00 0.00 0.00 0.00 0.00 0.00 0.00 0.00 0.00 0.00 0.00 0.00 0.00 0.00
0.00 0.00 0.00 0.00 0.00 0.00 0.00 0.00 0.01 0.01 0.02 0.03 0.05 0.07 0.09 0.10 0.11 0.12 0.12 0.12 0.11 0.07 0.03 0.01 0.01 0.01 0.01 0.00 0.00 0.00 0.00 0.00 0.00 0.00 0.00 0.00 0.00 0.00 0.00 0.00 0.00 0.00 0.00 0.00
0.00 0.00 0.00 0.00 0.00 0.00 0.00 0.00 0.01 0.01 0.01 0.03 0.06 0.09 0.11 0.13 0.14 0.15 0.15 0.15 0.16 0.15 0.10 0.04 0.02 0.01 0.01 0.00 0.00 0.00 0.00 0.00 0.00 0.00 0.00 0.00 0.00 0.00 0.00 0.00 0.00 0.00 0.00 0.00
0.00 0.00 0.00 0.00 0.00 0.00 0.00 0.00 0.00 0.01 0.01 0.02 0.04 0.06 0.09 0.12 0.15 0.18 0.19 0.18 0.18 0.19 0.18 0.12 0.05 0.02 0.02 0.01 0.00 0.00 0.00 0.00 0.00 0.00 0.00 0.00 0.00 0.00 0.00 0.00 0.00 0.00 0.00 0.00
0.00 0.00 0.00 0.00 0.00 0.00 0.00 0.00 0.01 0.01 0.01 0.02 0.03 0.04 0.06 0.08 0.12 0.16 0.19 0.18 0.19 0.23 0.24 0.18 0.09 0.04 0.02 0.01 0.00 0.00 0.00 0.00 0.00 0.00 0.00 0.00 0.00 0.00 0.00 0.00 0.00 0.00 0.00 0.00
0.00 0.00 0.00 0.00 0.00 0.00 0.00 0.00 0.01 0.02 0.02 0.02 0.02 0.03 0.04 0.05 0.08 0.12 0.14 0.15 0.18 0.25 0.27 0.20 0.12 0.06 0.02 0.01 0.00 0.00 0.00 0.00 0.00 0.00 0.00 0.00 0.00 0.00 0.00 0.00 0.00 0.00 0.00 0.00
0.00 0.00 0.00 0.00 0.00 0.01 0.01 0.01 0.02 0.03 0.04 0.03 0.03 0.04 0.04 0.05 0.06 0.09 0.10 0.11 0.14 0.20 0.23 0.20 0.16 0.10 0.05 0.02 0.00 0.00 0.00 0.00 0.00 0.00 0.00 0.00 0.00 0.00 0.00 0.00 0.00 0.00 0.00 0.00
0.00 0.01 0.01 0.01 0.01 0.02 0.03 0.04 0.04 0.05 0.06 0.06 0.05 0.04 0.04 0.04 0.04 0.05 0.07 0.09 0.11 0.13 0.15 0.16 0.15 0.12 0.08 0.03 0.01 0.00 0.00 0.00 0.00 0.00 0.00 0.00 0.00 0.00 0.00 0.00 0.00 0.00 0.00 0.00
0.01 0.01 0.01 0.02 0.04 0.06 0.08 0.09 0.10 0.10 0.10 0.10 0.07 0.04 0.03 0.03 0.02 0.02 0.03 0.05 0.07 0.08 0.10 0.11 0.12 0.12 0.09 0.04 0.01 0.01 0.00 0.00 0.00 0.00 0.00 0.00 0.00 0.00 0.00 0.00 0.00 0.00 0.00 0.00
0.01 0.01 0.02 0.03 0.06 0.11 0.15 0.19 0.21 0.19 0.18 0.15 0.09 0.04 0.03 0.03 0.02 0.02 0.02 0.03 0.05 0.06 0.06 0.07 0.09 0.09 0.07 0.04 0.02 0.01 0.00 0.00 0.00 0.00 0.00 0.00 0.00 0.00 0.00 0.00 0.00 0.00 0.00 0.00
0.01 0.01 0.02 0.05 0.08 0.13 0.20 0.26 0.29 0.27 0.24 0.19 0.12 0.06 0.04 0.04 0.03 0.03 0.02 0.03 0.04 0.05 0.06 0.06 0.06 0.06 0.04 0.03 0.02 0.01 0.00 0.00 0.00 0.01 0.00 0.00 0.00 0.00 0.00 0.00 0.00 0.00 0.00 0.00
MSLP
1014.42 1014.30 1014.16 1013.99 1013.80 1013.56 1013.27 1012.91 1012.47 1011.97 1011.43 1010.88 1010.35 1009.89 1009.52 1009.26 1009.11 1009.07 1009.10 1009.19 1009.29 1009.38 1009.45 1009.49 1009.50 1009.51 1009.52 1009.57 1009.65 1009.79 1009.97 1010.19 1010.44 1010.69 1010.93 1011.14 1011.30 1011.42 1011.49 1011.51 1011.49 1011.45 1011.40 1011.36
1014.46 1014.24 1013.97 1013.66 1013.33 1012.97 1012.57 1012.13 1011.66 1011.16 1010.65 1010.15 1009.70 1009.32 1009.02 1008.83 1008.74 1008.73 1008.80 1008.92 1009.04 1009.16 1009.26 1009.32 1009.35 1009.37 1009.39 1009.43 1009.50 1009.61 1009.77 1009.97 1010.20 1010.46 1010.72 1010.96 1011.17 1011.35 1011.48 1011.57 1011.63 1011.65 1011.67 1011.68
1014.40 1014.10 1013.74 1013.34 1012.90 1012.45 1011.98 1011.49 1010.99 1010.49 1010.00 1009.54 1009.13 1008.79 1008.54 1008.38 1008.32 1008.34 1008.43 1008.56 1008.71 1008.86 1008.98 1009.08 1009.14 1009.18 1009.20 1009.23 1009.28 1009.35 1009.47 1009.63 1009.83 1010.07 1010.33 1010.60 1010.86 1011.10 1011.32 1011.50 1011.65 1011.77 1011.87 1011.96
1014.22 1013.88 1013.48 1013.03 1012.55 1012.05 1011.54 1011.03 1010.51 1010.01 1009.53 1009.08 1008.68 1008.36 1008.11 1007.95 1007.88 1007.89 1007.98 1008.11 1008.28 1008.45 1008.61 1008.75 1008.85 1008.92 1008.97 1008.99 1009.02 1009.07 1009.14 1009.25 1009.41 1009.61 1009.85 1010.13 1010.43 1010.74 1011.04 1011.33 1011.59 1011.82 1012.02 1012.19
1013.95 1013.61 1013.21 1012.77 1012.30 1011.80 1011.29 1010.77 1010.26 1009.75 1009.26 1008.80 1008.38 1008.03 1007.74 1007.54 1007.43 1007.41 1007.46 1007.59 1007.76 1007.96 1008.16 1008.34 1008.50 1008.62 1008.70 1008.75 1008.78 1008.80 1008.84 1008.90 1009.01 1009.18 1009.40 1009.68 1010.01 1010.37 1010.75 1011.13 1011.50 1011.84 1012.14 1012.40
1013.67 1013.37 1013.02 1012.62 1012.19 1011.72 1011.23 1010.73 1010.21 1009.69 1009.18 1008.69 1008.22 1007.81 1007.46 1007.18 1007.00 1006.91 1006.92 1007.01 1007.18 1007.39 1007.63 1007.87 1008.09 1008.28 1008.42 1008.51 1008.56 1008.59 1008.61 1008.65 1008.73 1008.85 1009.05 1009.32 1009.66 1010.06 1010.50 1010.96 1011.42 1011.86 1012.25 1012.60
1013.50 1013.27 1012.99 1012.65 1012.27 1011.84 1011.38 1010.89 1010.36 1009.82 1009.27 1008.72 1008.19 1007.69 1007.25 1006.88 1006.60 1006.43 1006.37 1006.41 1006.55 1006.77 1007.04 1007.34 1007.63 1007.89 1008.11 1008.27 1008.38 1008.44 1008.48 1008.51 1008.57 1008.67 1008.85 1009.10 1009.45 1009.86 1010.35 1010.86 1011.39 1011.91 1012.38 1012.80
1013.57 1013.42 1013.20 1012.93 1012.59 1012.19 1011.73 1011.23 1010.68 1010.10 1009.49 1008.87 1008.25 1007.66 1007.12 1006.64 1006.26 1005.98 1005.83 1005.81 1005.92 1006.12 1006.41 1006.75 1007.11 1007.46 1007.76 1008.01 1008.19 1008.32 1008.39 1008.45 1008.51 1008.61 1008.77 1009.01 1009.35 1009.78 1010.28 1010.83 1011.41 1011.98 1012.52 1012.99
1013.98 1013.89 1013.73 1013.48 1013.15 1012.74 1012.26 1011.72 1011.12 1010.47 1009.79 1009.09 1008.38 1007.69 1007.04 1006.46 1005.97 1005.59 1005.35 1005.25 1005.29 1005.47 1005.76 1006.12 1006.53 1006.95 1007.34 1007.68 1007.96 1008.16 1008.30 1008.40 1008.49 1008.60 1008.77 1009.01 1009.33 1009.76 1010.26 1010.84 1011.44 1012.05 1012.63 1013.15
1014.75 1014.70 1014.54 1014.28 1013.91 1013.44 1012.90 1012.28 1011.60 1010.87 1010.12 1009.33 1008.54 1007.77 1007.02 1006.34 1005.75 1005.27 1004.92 1004.73 1004.70 1004.83 1005.09 1005.45 1005.89 1006.36 1006.83 1007.25 1007.62 1007.91 1008.13 1008.30 1008.44 1008.58 1008.76 1009.00 1009.33 1009.75 1010.25 1010.83 1011.45 1012.08 1012.69 1013.25
1015.80 1015.74 1015.54 1015.21 1014.75 1014.19 1013.54 1012.82 1012.04 1011.24 1010.40 1009.55 1008.70 1007.85 1007.04 1006.28 1005.60 1005.02 1004.58 1004.29 1004.17 1004.22 1004.42 1004.75 1005.19 1005.68 1006.19 1006.69 1007.14 1007.51 1007.82 1008.07 1008.27 1008.47 1008.68 1008.93 1009.27 1009.68 1010.18 1010.76 1011.38 1012.03 1012.66 1013.24
1016.98 1016.85 1016.55 1016.10 1015.51 1014.81 1014.04 1013.21 1012.35 1011.47 1010.58 1009.68 1008.79 1007.92 1007.06 1006.25 1005.50 1004.84 1004.31 1003.92 1003.70 1003.66 1003.78 1004.05 1004.45 1004.93 1005.46 1006.00 1006.51 1006.96 1007.35 1007.67 1007.95 1008.20 1008.46 1008.74 1009.09 1009.51 1010.01 1010.58 1011.21 1011.86 1012.50 1013.11
1018.02 1017.78 1017.34 1016.74 1016.00 1015.16 1014.27 1013.35 1012.42 1011.49 1010.58 1009.68 1008.80 1007.92 1007.06 1006.22 1005.44 1004.72 1004.10 1003.62 1003.30 1003.15 1003.17 1003.36 1003.70 1004.15 1004.66 1005.22 1005.76 1006.27 1006.73 1007.12 1007.47 1007.78 1008.09 1008.41 1008.78 1009.22 1009.72 1010.30 1010.92 1011.57 1012.22 1012.83
1018.69 1018.30 1017.70 1016.94 1016.06 1015.10 1014.12 1013.14 1012.18 1011.26 1010.38 1009.52 1008.67 1007.83 1007.00 1006.17 1005.37 1004.61 1003.94 1003.37 1002.95 1002.70 1002.62 1002.72 1002.98 1003.36 1003.85 1004.39 1004.95 1005.49 1005.99 1006.45 1006.85 1007.22 1007.58 1007.94 1008.35 1008.80 1009.31 1009.89 1010.51 1011.16 1011.81 1012.43
1018.83 1018.27 1017.51 1016.60 1015.61 1014.57 1013.55 1012.56 1011.64 1010.77 1009.95 1009.17 1008.40 1007.63 1006.85 1006.05 1005.26 1004.49 1003.77 1003.14 1002.64 1002.30 1002.12 1002.13 1002.30 1002.63 1003.06 1003.57 1004.12 1004.68 1005.20 1005.70 1006.15 1006.56 1006.96 1007.37 1007.80 1008.27 1008.80 1009.37 1010.00 1010.64 1011.28 1011.90
1018.36 1017.63 1016.73 1015.72 1014.66 1013.61 1012.60 1011.66 1010.81 1010.04 1009.33 1008.65 1007.98 1007.30 1006.58 1005.83 1005.06 1004.29 1003.55 1002.88 1002.33 1001.91 1001.67 1001.60 1001.70 1001.96 1002.34 1002.81 1003.34 1003.88 1004.41 1004.92 1005.39 1005.84 1006.27 1006.70 1007.16 1007.65 1008.19 1008.77 1009.39 1010.02 1010.66 1011.26
1017.36 1016.48 1015.48 1014.42 1013.35 1012.33 1011.39 1010.54 1009.80 1009.15 1008.56 1008.00 1007.43 1006.83 1006.18 1005.48 1004.74 1003.98 1003.24 1002.56 1001.98 1001.53 1001.24 1001.12 1001.16 1001.37 1001.70 1002.13 1002.62 1003.13 1003.65 1004.15 1004.63 1005.09 1005.53 1005.98 1006.45 1006.96 1007.50 1008.08 1008.70 1009.32 1009.94 1010.52
1015.98 1015.00 1013.95 1012.88 1011.85 1010.91 1010.07 1009.35 1008.73 1008.20 1007.72 1007.25 1006.77 1006.24 1005.64 1004.98 1004.27 1003.54 1002.81 1002.14 1001.56 1001.11 1000.80 1000.66 1000.68 1000.85 1001.14 1001.53 1001.97 1002.45 1002.93 1003.41 1003.87 1004.32 1004.76 1005.22 1005.69 1006.20 1006.75 1007.33 1007.93 1008.54 1009.14 1009.70
1014.46 1013.43 1012.37 1011.35 1010.40 1009.56 1008.83 1008.23 1007.72 1007.28 1006.88 1006.48 1006.03 1005.53 1004.96 1004.32 1003.64 1002.93 1002.23 1001.60 1001.05 1000.63 1000.35 1000.22 1000.24 1000.39 1000.65 1001.00 1001.40 1001.82 1002.26 1002.69 1003.12 1003.54 1003.97 1004.41 1004.89 1005.40 1005.94 1006.51 1007.10 1007.70 1008.27 1008.80
1013.04 1012.00 1010.98 1010.02 1009.17 1008.42 1007.80 1007.28 1006.85 1006.46 1006.08 1005.69 1005.24 1004.73 1004.15 1003.52 1002.85 1002.17 1001.52 1000.93 1000.45 1000.08 999.85 999.76 999.80 999.95 1000.20 1000.51 1000.86 1001.23 1001.61 1001.99 1002.37 1002.75 1003.15 1003.58 1004.05 1004.55 1005.09 1005.65 1006.23 1006.81 1007.36 1007.86
1011.87 1010.86 1009.90 1009.02 1008.25 1007.59 1007.03 1006.56 1006.13 1005.74 1005.33 1004.89 1004.39 1003.84 1003.23 1002.58 1001.91 1001.27 1000.67 1000.16 999.76 999.47 999.31 999.28 999.36 999.52 999.76 1000.03 1000.34 1000.65 1000.96 1001.28 1001.60 1001.95 1002.32 1002.73 1003.18 1003.68 1004.21 1004.77 1005.34 1005.89 1006.42 1006.90
1011.02 1010.06 1009.17 1008.36 1007.65 1007.03 1006.49 1006.01 1005.55 1005.08 1004.59 1004.06 1003.48 1002.85 1002.19 1001.51 1000.86 1000.26 999.73 999.30 998.99 998.80 998.73 998.77 998.89 999.07 999.29 999.54 999.79 1000.04 1000.29 1000.55 1000.82 1001.12 1001.46 1001.85 1002.30 1002.80 1003.33 1003.89 1004.45 1004.99 1005.49 1005.94
1010.44 1009.54 1008.71 1007.96 1007.28 1006.67 1006.10 1005.55 1005.00 1004.43 1003.82 1003.16 1002.47 1001.76 1001.04 1000.35 999.72 999.16 998.71 998.38 998.18 998.09 998.11 998.21 998.37 998.57 998.78 998.99 999.19 999.38 999.57 999.77 1000.00 1000.26 1000.59 1000.97 1001.42 1001.92 1002.46 1003.02 1003.58 1004.12 1004.60 1005.02
1010.03 1009.19 1008.41 1007.68 1007.00 1006.35 1005.72 1005.07 1004.40 1003.69 1002.95 1002.17 1001.37 1000.58 999.82 999.12 998.52 998.03 997.66 997.43 997.33 997.33 997.43 997.59 997.79 997.99 998.19 998.36 998.51 998.65 998.78 998.93 999.12 999.37 999.68 1000.07 1000.53 1001.05 1001.61 1002.19 1002.75 1003.28 1003.76 1004.16
1009.67 1008.88 1008.13 1007.40 1006.70 1005.99 1005.26 1004.49 1003.69 1002.84 1001.97 1001.07 1000.18 999.33 998.54 997.86 997.30 996.87 996.59 996.46 996.45 996.54 996.70 996.90 997.11 997.31 997.49 997.62 997.72 997.81 997.90 998.02 998.18 998.42 998.74 999.14 999.63 1000.18 1000.77 1001.37 1001.95 1002.49 1002.97 1003.37
1009.29 1008.53 1007.78 1007.04 1006.28 1005.49 1004.66 1003.77 1002.85 1001.87 1000.88 999.89 998.94 998.05 997.26 996.60 996.09 995.74 995.54 995.48 995.54 995.70 995.90 996.12 996.34 996.52 996.66 996.75 996.81 996.86 996.92 997.02 997.17 997.42 997.75 998.19 998.71 999.30 999.92 1000.56 1001.17 1001.73 1002.22 1002.63
1008.84 1008.10 1007.34 1006.56 1005.74 1004.87 1003.94 1002.95 1001.91 1000.84 999.76 998.70 997.71 996.81 996.03 995.41 994.95 994.66 994.52 994.52 994.63 994.81 995.03 995.25 995.45 995.60 995.71 995.76 995.79 995.81 995.85 995.94 996.11 996.37 996.74 997.21 997.77 998.40 999.07 999.75 1000.40 1001.00 1001.52 1001.95
Thickness
5710 5713 5711 5706 5703 5701 5693 5689 5681 5688 5690 5695 5697 5695 5693 5689 5685 5682 5682 5681 5678 5675 5670 5665 5659 5652 5646 5640 5634 5629 5624 5620 5616 5613 5609 5609 5607 5608 5611 5616 5619 5620 5623 5626
5701 5707 5707 5702 5703 5701 5698 5696 5691 5688 5688 5699 5700 5693 5686 5682 5679 5676 5675 5674 5672 5668 5663 5658 5653 5647 5641 5637 5632 5627 5624 5620 5618 5614 5611 5609 5607 5607 5609 5611 5613 5614 5616 5618
5694 5705 5697 5692 5703 5701 5700 5702 5695 5686 5691 5697 5690 5686 5681 5678 5675 5673 5671 5670 5666 5663 5659 5654 5649 5644 5638 5634 5631 5627 5624 5622 5619 5615 5612 5609 5607 5606 5606 5607 5607 5608 5610 5610
5690 5688 5674 5701 5713 5704 5694 5696 5696 5693 5692 5688 5684 5683 5680 5676 5671 5669 5667 5665 5662 5659 5655 5651 5647 5642 5636 5633 5630 5626 5624 5622 5620 5616 5612 5608 5605 5604 5603 5603 5603 5603 5603 5602
5684 5679 5684 5698 5698 5690 5681 5680 5689 5682 5678 5678 5679 5675 5679 5682 5673 5667 5664 5661 5659 5656 5653 5649 5644 5639 5634 5631 5629 5627 5625 5622 5620 5617 5613 5609 5605 5603 5601 5600 5599 5598 5597 5595
5678 5664 5663 5685 5686 5687 5677 5670 5680 5674 5668 5668 5666 5659 5668 5673 5669 5665 5660 5657 5654 5653 5649 5645 5641 5636 5631 5629 5628 5626 5625 5622 5620 5617 5614 5610 5606 5603 5600 5597 5595 5593 5591 5590
5670 5666 5676 5685 5682 5677 5655 5659 5666 5664 5662 5660 5658 5657 5663 5666 5664 5660 5656 5653 5650 5648 5644 5641 5638 5633 5629 5628 5627 5626 5625 5621 5618 5616 5613 5609 5604 5600 5597 5594 5591 5589 5586 5584
5661 5651 5659 5673 5666 5650 5646 5652 5654 5655 5656 5656 5657 5660 5661 5661 5659 5655 5650 5648 5645 5642 5640 5638 5636 5631 5627 5626 5627 5625 5623 5620 5617 5613 5612 5607 5602 5598 5595 5591 5587 5584 5582 5579
5654 5655 5664 5659 5648 5641 5638 5636 5639 5642 5647 5649 5650 5653 5654 5655 5654 5652 5648 5645 5642 5639 5637 5635 5633 5630 5627 5627 5625 5623 5621 5618 5615 5612 5609 5606 5601 5596 5593 5589 5590 5587 5583 5579
5650 5655 5650 5642 5632 5626 5623 5622 5624 5626 5630 5633 5636 5642 5645 5646 5647 5647 5646 5642 5639 5635 5634 5632 5630 5628 5626 5625 5623 5620 5618 5615 5612 5609 5607 5604 5601 5597 5595 5592 5590 5586 5583 5579
5636 5633 5624 5620 5609 5606 5606 5608 5610 5612 5613 5616 5619 5624 5628 5632 5637 5640 5641 5638 5635 5632 5631 5631 5628 5626 5624 5623 5619 5617 5615 5612 5610 5608 5606 5602 5599 5596 5594 5592 5591 5585 5582 5578
5601 5588 5586 5587 5586 5587 5587 5589 5592 5596 5601 5603 5604 5606 5610 5615 5621 5626 5631 5632 5630 5629 5628 5628 5625 5623 5622 5620 5616 5614 5612 5610 5609 5607 5604 5601 5597 5591 5581 5583 5578 5576 5574 5573
5569 5568 5568 5564 5565 5566 5567 5570 5575 5579 5583 5587 5590 5592 5594 5598 5603 5609 5617 5622 5623 5624 5625 5625 5623 5620 5619 5617 5613 5611 5610 5608 5607 5605 5602 5599 5596 5593 5586 5574 5568 5566 5565 5563
5554 5551 5549 5548 5548 5550 5552 5554 5558 5563 5568 5572 5575 5578 5580 5583 5586 5591 5598 5607 5615 5617 5619 5619 5619 5617 5617 5614 5610 5608 5606 5604 5602 5601 5599 5597 5595 5592 5588 5582 5574 5568 5558 5554
5542 5537 5535 5536 5537 5538 5540 5541 5542 5546 5550 5556 5561 5565 5567 5569 5571 5576 5583 5592 5603 5609 5613 5614 5614 5614 5613 5610 5606 5604 5603 5602 5598 5598 5596 5595 5593 5591 5588 5583 5578 5572 5564 5550
5532 5529 5527 5526 5526 5526 5526 5525 5524 5527 5531 5536 5543 5548 5554 5557 5560 5564 5569 5575 5585 5597 5605 5608 5610 5611 5610 5607 5602 5600 5599 5597 5593 5594 5592 5591 5590 5588 5585 5581 5577 5573 5567 5560
5518 5519 5519 5517 5515 5512 5508 5504 5502 5503 5508 5513 5520 5528 5537 5543 5548 5553 5557 5561 5568 5581 5593 5601 5605 5607 5607 5603 5599 5598 5597 5592 5586 5588 5589 5588 5586 5584 5582 5579 5576 5572 5569 5565
5511 5507 5504 5500 5497 5495 5493 5490 5487 5485 5486 5490 5497 5506 5517 5525 5533 5541 5546 5550 5557 5567 5579 5591 5598 5602 5602 5601 5598 5598 5595 5592 5585 5585 5586 5584 5583 5581 5579 5576 5574 5570 5567 5561
5504 5499 5494 5490 5487 5483 5482 5481 5479 5477 5475 5474 5477 5484 5494 5507 5519 5528 5535 5539 5546 5553 5565 5576 5585 5593 5597 5597 5595 5594 5594 5591 5586 5584 5584 5580 5578 5578 5577 5574 5572 5569 5567 5563
5496 5492 5488 5485 5482 5478 5475 5474 5472 5470 5468 5466 5465 5469 5477 5490 5503 5515 5524 5530 5536 5542 5549 5560 5572 5583 5590 5593 5590 5594 5593 5591 5588 5585 5583 5581 5578 5577 5576 5573 5571 5569 5566 5564
5487 5484 5481 5479 5478 5476 5473 5471 5468 5466 5463 5460 5459 5461 5468 5478 5491 5504 5514 5523 5532 5535 5540 5547 5560 5573 5583 5588 5584 5593 5594 5591 5589 5587 5585 5583 5580 5578 5576 5574 5571 5569 5567 5565
5477 5476 5475 5475 5474 5474 5473 5470 5467 5463 5459 5457 5457 5459 5463 5472 5483 5495 5507 5516 5525 5529 5534 5542 5551 5562 5573 5579 5583 5591 5594 5593 5592 5590 5588 5585 5583 5580 5578 5575 5573 5570 5568 5566
5469 5469 5470 5471 5471 5471 5470 5467 5464 5460 5456 5454 5455 5456 5460 5468 5477 5487 5502 5514 5521 5526 5531 5538 5544 5552 5559 5570 5580 5587 5594 5595 5594 5592 5590 5588 5586 5584 5581 5578 5576 5573 5570 5568
5465 5467 5467 5468 5468 5467 5466 5464 5460 5457 5454 5453 5454 5455 5458 5466 5475 5486 5498 5509 5516 5522 5530 5535 5539 5546 5551 5564 5577 5585 5592 5595 5595 5595 5593 5591 5589 5587 5584 5581 5579 5576 5573 5570
5464 5465 5466 5466 5464 5462 5460 5458 5456 5456 5455 5455 5456 5457 5459 5465 5474 5484 5496 5508 5517 5522 5532 5537 5538 5543 5551 5562 5574 5583 5590 5595 5598 5597 5595 5593 5591 5589 5587 5584 5581 5579 5576 5573
5464 5465 5465 5464 5462 5460 5457 5454 5454 5457 5458 5460 5461 5461 5463 5467 5474 5483 5494 5508 5519 5527 5535 5542 5546 5547 5555 5564 5573 5582 5588 5592 5593 5594 5596 5595 5593 5590 5588 5586 5582 5580 5577 5574
5468 5468 5468 5468 5466 5463 5459 5458 5459 5463 5466 5467 5468 5468 5468 5471 5477 5486 5497 5510 5522 5533 5540 5546 5551 5555 5560 5567 5574 5580 5585 5590 5592 5592 5593 5593 5593 5591 5589 5586 5583 5580 5577 5574